Regional Weather Roundup
Issued by NWS Wakefield, VA

Home | Current Version | Previous Version | Graphics & Text | Print | Product List | Glossary On
Versions: 1 2 3 4 5 6 7 8 9 10 11 12 13 14 15 16 17 18 19 20 21 22 23 24 25 26 27 28
000
ASUS41 KAKQ 240215
RWRAKQ

REGIONAL WEATHER ROUNDUP
NATIONAL WEATHER SERVICE WAKEFIELD VA
1000 PM EDT WED AUG 23 2017

Note: "fair" indicates few or no clouds below 12,000 feet with no
significant weather and/or obstructions to visibility. * = Denotes
station may not report precipitation (e.g., rain,snow,etc.),
thunder or fog.

VAZ042-051-052>054-056-240300-
NORTHERN VIRGINIA

CITY           SKY/WX    TMP DP  RH WIND       PRES   REMARKS
WASH NATIONAL  FAIR      78  60  53 N9        29.89S
DULLES         FAIR      76  58  53 N10       29.91R
FORT BELVOIR   FAIR      70  67  89 CALM      29.89S
QUANTICO       FAIR      73  71  93 NW7       29.90R
FREDERICKSBRG* FAIR      69  69 100 CALM      29.89R
STAFFORD*      FAIR      67  67 100 CALM      29.93S
WARRENTON      MOCLDY    70  64  80 CALM      29.90S
CULPEPER*      CLOUDY    72  67  84 CALM      29.92R
MANASSAS*      FAIR      72  63  73 N3        29.90S
LEESBURG*      CLOUDY    75  59  57 N6        29.93S
WINCHESTER     CLOUDY    70  54  56 CALM      29.94S
FRONT ROYAL*   CLOUDY    72  59  64 CALM      29.93R
LURAY*         CLOUDY    73  61  64 N3        29.94R
$$

VAZ048-049-060>072-079>083-240300-
CENTRAL AND SOUTH CENTRAL VIRGINIA

CITY           SKY/WX    TMP DP  RH WIND       PRES   REMARKS
RICHMOND       MOCLDY    70  69  97 CALM      29.89R
CHESTERFIELD*  FAIR      68  67  96 SE3       29.90R
PETERSBURG*    FAIR      69  69  99 NE3       29.89R
HANOVER        MOCLDY    69  65  86 CALM      29.90R
TAPPAHANNOCK*  FAIR     N/A N/A N/A CALM      29.89R
QUINTON*       FAIR     N/A N/A N/A W6        29.88R
CHARLOTTSVILLE CLOUDY    74  69  85 W3        29.92R
GORDONSVILLE*  CLOUDY    73  70  92 CALM      29.91R
ORANGE*        CLOUDY    70  68  94 CALM      29.91R
LOUISA*        CLOUDY    66  66 100 CALM      29.90R
BUMPASS*       FAIR      67  67 100 CALM      29.90R
FARMVILLE*     MOCLDY    73  69  89 CALM      29.90R
CREWE*         FAIR      69  65  86 CALM      29.90R
FORT PICKETT*  FAIR     N/A N/A N/A CALM      29.91R
CHASE CITY*    FAIR      71  71  99 CALM      29.91R
CLARKSVILLE*   CLOUDY    73  68  83 E6        29.90R
SOUTH HILL*    FAIR      70  70  99 CALM      29.96R
LAWRENCEVILLE* FAIR      71  69  95 CALM      29.90R
EMPORIA*         N/A    N/A N/A N/A MISG        N/A
$$

VAZ088>098-240300-
SOUTHEAST VIRGINIA

CITY           SKY/WX    TMP DP  RH WIND       PRES   REMARKS
NORFOLK        MOCLDY    79  74  84 NE14      29.86R
VIRGINIA BEACH MOCLDY    76  73  91 NE10      29.85R
NORFOLK NAVAL  MOCLDY    78  74  87 NE13      29.88R
WEST POINT*    FAIR      71  70  97 CALM      29.88R
SALUDA*        FAIR      72  72  99 CALM      29.87R
NEWPORT NEWS   CLOUDY    75  70  84 NE6       29.87R
LANGLEY AFB    MOCLDY    77  70  78 NE9       29.86R
FORT EUSTIS    FAIR      74  68  80 NE5       29.85R
WILLIAMSBURG*  FAIR      73  73 100 CALM      29.88R
HR EXEC AP*    FAIR      73  70  88 N3        29.85R
FRANKLIN*      FAIR      71  70  96 CALM      29.88R
US460-WAKEFLD  FAIR      72  71  97 CALM      29.88R
$$

VAZ020-022-025-037-045-240300-
WEST CENTRAL AND SOUTHWEST VIRGINIA

CITY           SKY/WX    TMP DP  RH WIND       PRES   REMARKS
STAUNTON*      CLOUDY    74  56  52 N7        29.96R
WAYNESBORO*    CLOUDY    71  70  97 N5        29.96R
HOT SPRINGS VA FAIR      61  52  72 CALM      30.07R
LYNCHBURG      FAIR      73  67  81 NE5       29.93R
DANVILLE       MOCLDY    75  71  87 E8        29.90R
SOUTH BOSTON*  FAIR      72  70  93 NE3       29.91R
MARTINSVILLE   CLOUDY    71  64  79 N6        29.93R
ROANOKE        FAIR      74  56  53 N6        29.96R
BLACKSBURG     FAIR      69  57  65 N6        30.03R
DUBLIN*        FAIR      70  58  63 N5        30.01R
MARION*        CLOUDY    68  47  47 CALM      30.05R
HILLSVILLE*    FAIR      66  55  67 CALM      30.01R
RICHLANDS*     CLOUDY    66  56  71 N3        30.05R
WISE*          FAIR      64  54  68 CALM      30.06R
ABINGDON*      MOCLDY    68  64  85 CALM      30.00R
$$

MDZ021>025-VAZ099-100-240300-
SOUTHERN MARYLAND AND THE DELMARVA PENINSULA

CITY           SKY/WX    TMP DP  RH WIND       PRES   REMARKS
PATUXENT RIVER FAIR      73  70  90 N7        29.87S
BAY BRIDGE APT FAIR      72  64  78 CALM      29.89R
LEONARDTOWN    FAIR      70  68  94 CALM      29.90R
DOVER          CLEAR     68  59  73 N5        29.89R
GEORGETOWN     MOCLDY    74  68  81 CALM      29.88S
EASTON         PTCLDY    73  70  88 CALM      29.92S
CAMBRIDGE      MOCLDY    70  68  94 CALM      29.88S
SALISBURY      MOCLDY    71  68  90 CALM      29.87R
OCEAN CITY     NOT AVBL
WALLOPS ISLAND MOCLDY    73  67  81 N7        29.86R
ACCOMACK*      CLOUDY    73  69  85 NE6       29.86S
$$

NCZ012>017-030>032-240300-
NORTH CENTRAL AND EASTERN NORTH CAROLINA

CITY           SKY/WX    TMP DP  RH WIND       PRES   REMARKS
ROANOKE RAPIDS FAIR      72  72 100 CALM      29.89R
RALEIGH        MOCLDY    77  74  90 NE9       29.89R
ELIZABETH CITY FAIR      73  73 100 MISG      29.87R
AHOSKIE*         N/A     72  72  99 CALM      29.89R
EDENTON*       FAIR      76  73  91 CALM      29.88R
CURRITUCK*     MOCLDY    73  72  96 CALM      29.87R
KILL DEVIL HLS RAIN      74  74 100 CALM      29.83R
MANTEO         FAIR      74  72  93 NW3       29.85R
CAPE HATTERAS  FAIR      81  79  94 SW7       29.86R
TARBORO*       NOT AVBL
GOLDSBORO      MOCLDY    74  74 100 SE7       29.88R
WASHINGTON     RAIN      72  71  95 S3        29.87S
GREENVILLE     RAIN      73  73 100 S5        29.90S
NEW BERN       LGT RAIN  72  71  97 CALM      29.91F
WILMINGTON     TSTM      73  70  90 N9G22     29.91R
$$

VAZ048-240300-
ELSEWHERE

CITY           SKY/WX    TMP DP  RH WIND       PRES   REMARKS
HARRISBURG PA  FAIR      69  59  70 N3        29.90S
BALTIMORE      FAIR      71  63  75 N5        29.89R
ANNAPOLIS      FAIR      74  70  87 CALM      29.89R
ANDREWS AFB    FAIR      69  66  89 CALM      29.89R
PHILADELPHIA   FAIR      75  56  51 NW6       29.88F
HENDERSON NC   CLOUDY    73  68  86 E5        29.91R
GREENSBORO     FAIR      79  71  76 N5        29.89R
ROCKY MOUNT    FAIR      73  73 100 CALM      29.88R
$$

VAZ100-240300-
MARINE

STATION/POSITION TIME  TEMP    WIND        PRES    WAVE   SWELL
                       AIR SEA DIR/SP/G            HT/PER HT/PER
                 (UTC) (F)     (DEG/KT/KT) (MB)    (FT/S) (FT/S)
BRANDYWINE LGT   0148           20/ 13/ 15 1012.0R
CAPE MAY NJ      0142   78 78   30/  3/  7 1011.2R
LEWES DE         0142   78 78   10/  4/  6 1011.4S
15NM E FENWICK I 0150   77 78  330/ 12/ 14 1011.2F   3/ 8   2/ 8
OCEAN-CITY-INLET 0142   76 75   60/  3/  5 1011.4F
WACHAPREAGUE VA  0142   75 83   20/  5/  7 1011.2R
THOMAS POINT MD  0200   78 81   70/  6/  7   N/A
GOOSES REEF MD   0200   79 81   20/  8/ 10 1012.6    0
COVE POINT MD    0142   77      20/  8/ 10 1012.4R
SOLOMONS ISLAND  0142   75 81  360/  6/  6   N/A
BISHOPS HEAD MD  0142   75 82   30/  8/  8 1011.6R
PINEY POINT MD   0148           20/  5/  6   N/A
POTOMAC MD       0200   78 82   50/  4/  6 1010.9    0
CAMBRIDGE MD     0142   76 82              1012.6R
LEWISETTA VA     0142   77 83   40/  2/  4 1011.4R
RAPPAHANNOCK LGT 0148           20/ 15/ 18 1011.7R
STINGRAY PT      0200   77 83   60/ 10/ 12 1011.6    2/ 3
YORK RVR RNG VA  0142   78      30/ 15/ 18 1011.1R
YORKTOWN VA      0142   76 84   40/  7/ 10 1010.7R
JAMESTOWN VA     0200      85   CALM  /  2   N/A     0
DOMINION TERM VA 0142   77      50/  1/  3 1011.2R
KIPTOPEKE VA     0136      83   40/  5/  8   N/A
CHES BAY BRIDGE  0136   78 81   50/ 16/ 19 1010.4R
CAPE HENRY VA    0136   77      30/ 17/ 19   N/A
WILLOUBY STN VA  0136   79      40/ 15/ 17 1011.0R
S CRANEY ISL VA  0142   79      30/ 11/ 18 1010.5R
CAPE HENRY BUOY  0200      80                N/A     2/ 9
1ST LANDING BUOY 0200   79 80              1010.8    2/ 3
64NM E OF VA BCH 0150   80 80  280/  2/  4 1010.5R   3/ 9   3/ 9
DUCK PIER NC     0136   76 67  320/ 12/ 13 1009.9R
44100 DUCK FRF   0105      80                N/A     2/ 8
44056 DUCK FRF   0200      74                N/A     2/ 9
OREGON INLET NC  0148          310/  4/  6 1010.3R
HATTERAS NC      0136   80 81  220/  6/  8 1010.9R
DIAMOND SHLS NC  0150   84 84  230/ 14/ 16 1010.9R   4/ 5   2/ 9
CAPE LOOKOUT NC  0200   82     240/ 11/ 14 1011.5R
$$




USA.gov is the U.S. government's official web portal to all federal, state and local government web resources and services.